Waarnemingen

Advertentie
Mijn weer
Bournemouth Airport, Groot Brittannië (3862): temperatuur & dauwpunt: 17.03.2019 15:00:00 - 23.03.2019 15:00:00 (GMT)Bournemouth Airport, Groot Brittannië (3862): temperatuur -20cm & temperatuur -100cm: 17.03.2019 15:00:00 - 23.03.2019 15:00:00 (GMT)Bournemouth Airport, Groot Brittannië (3862): windsnelheid & windstoten: 17.03.2019 15:00:00 - 23.03.2019 15:00:00 (GMT)Bournemouth Airport, Groot Brittannië (3862): windrichting: 17.03.2019 15:00:00 - 23.03.2019 15:00:00 (GMT)Bournemouth Airport, Groot Brittannië (3862): luchtdruk: 17.03.2019 15:00:00 - 23.03.2019 15:00:00 (GMT)Bournemouth Airport, Groot Brittannië (3862): zicht: 17.03.2019 15:00:00 - 23.03.2019 15:00:00 (GMT)Bournemouth Airport, Groot Brittannië (3862): Zonneschijnduur: 17.03.2019 15:00:00 - 23.03.2019 15:00:00 (GMT)Bournemouth Airport, Groot Brittannië (3862): neerslag: 17.03.2019 15:00:00 - 23.03.2019 15:00:00 (GMT)
Datum & Tijd tt [°C] td [°C] tt -20cm [°C] tt -100cm [°C] ff [km/u] ff [kn] fx [km/u] fx [kn] dd ppp [hPa] vv [km] sd [min] rr [mm]
23.03.2019 15:00:00 - - - - - - - - - - - - -
23.03.2019 14:00:00 11,8 9,3 - - 11 6 - - O 1031,9 10 0 0,0
23.03.2019 13:00:00 10,1 8,6 - - 16 9 - - NO 1032,2 6 0 0,0
23.03.2019 12:00:00 10,6 8,6 - - 18 10 - - NO 1032,1 7 0 0,0
23.03.2019 11:00:00 10,0 8,9 - - 18 10 - - NNO 1032,1 2,0 0 0,0
23.03.2019 10:00:00 10,9 8,0 - - 15 8 - - NNO 1032,0 10 0 0,0
23.03.2019 09:00:00 10,1 8,2 9,4 8,7 11 6 - - NO 1031,5 10 0 0,0
23.03.2019 08:00:00 8,8 8,6 - - 4 2 - - N 1031,1 4,3 0 0,0
23.03.2019 07:00:00 8,1 7,9 - - 4 2 - - N 1030,8 1,8 0 0,0
23.03.2019 06:00:00 7,7 7,5 - - 0 0 - - N 1030,3 2,7 0 0,0
23.03.2019 05:00:00 7,7 7,5 - - 2 1 - - NNO 1029,8 3,1 0 0,0
23.03.2019 04:00:00 7,5 7,4 - - 4 2 - - NNO 1029,7 3,5 0 0,0
23.03.2019 03:00:00 6,5 6,3 - - 0 0 - - N 1029,6 5 0 0,0
23.03.2019 02:00:00 5,6 5,3 - - 0 0 - - N 1029,2 0,1 0 0,0
23.03.2019 01:00:00 7,6 6,9 - - 4 2 - - W 1029,0 0,8 0 0,0
23.03.2019 00:00:00 9,2 8,3 - - 4 2 - - WZW 1028,8 5 - 0,0
22.03.2019 23:00:00 9,4 8,3 - - 8 4 - - W 1028,9 5 0 0,0
22.03.2019 22:00:00 9,4 8,3 - - 9 5 - - W 1028,9 7 0 0,0
22.03.2019 21:00:00 9,2 7,9 - - 5 3 - - WZW 1028,9 9 0 0,0
22.03.2019 20:00:00 9,8 7,7 - - 8 4 - - WZW 1028,4 13 0 0,0
22.03.2019 19:00:00 9,9 7,6 - - 9 5 - - WZW 1028,3 14 0 0,0
22.03.2019 18:00:00 10,2 7,5 - - 15 8 - - WZW 1027,9 17 0 0,0
22.03.2019 17:00:00 10,4 8,1 - - 11 6 - - ZZW 1027,6 15 0 0,0
22.03.2019 16:00:00 10,2 7,7 - - 15 8 - - WZW 1027,7 10 0 0,0
22.03.2019 15:00:00 10,3 8,4 - - 11 6 - - ZZW 1027,9 10 0 0,0
22.03.2019 14:00:00 10,2 7,9 - - 13 7 - - Z 1028,2 20 0 0,0
22.03.2019 13:00:00 10,1 7,9 - - 11 6 - - Z 1028,6 18 0 0,0
22.03.2019 12:00:00 9,8 7,8 - - 13 7 - - ZZW 1028,9 10 0 0,0
22.03.2019 11:00:00 10,3 7,2 - - 13 7 - - Z 1028,9 20 0 0,0
22.03.2019 10:00:00 10,2 7,3 - - 5 3 - - ZW 1029,4 10 0 0,0
22.03.2019 09:00:00 9,6 7,0 9,5 8,7 4 2 - - W 1029,5 10 0 0,0
22.03.2019 08:00:00 9,2 6,8 - - 9 5 - - WZW 1029,5 10 0 0,0
22.03.2019 07:00:00 9,1 6,6 - - 9 5 - - ZZW 1029,3 10 0 0,0
22.03.2019 06:00:00 8,9 6,6 - - 9 5 - - ZW 1029,3 28 0 0,0
22.03.2019 05:00:00 8,9 6,4 - - 11 6 - - ZW 1029,3 30 0 0,0
22.03.2019 04:00:00 8,9 6,8 - - 15 8 - - ZZW 1029,6 30 0 0,0
22.03.2019 03:00:00 9,3 6,7 - - 13 7 - - Z 1030,1 26 0 0,0
22.03.2019 02:00:00 9,5 8,0 - - 9 5 - - Z 1030,5 14 0 0,0
22.03.2019 01:00:00 9,6 8,8 - - 8 4 - - Z 1030,7 9 0 0,0
22.03.2019 00:00:00 9,7 8,7 - - 11 6 - - Z 1030,6 13 - 0,0
21.03.2019 23:00:00 9,9 8,7 - - 5 3 - - ZO 1031,2 18 0 0,0
21.03.2019 22:00:00 10,0 8,7 - - 5 3 - - ZZO 1031,8 17 0 0,0
21.03.2019 21:00:00 10,7 8,5 - - 5 3 - - ZZO 1032,2 10 0 0,0
21.03.2019 20:00:00 11,0 8,7 - - 5 3 - - ZZO 1032,1 10 0 0,0
21.03.2019 19:00:00 11,4 9,0 - - 5 3 - - ZZO 1032,2 10 0 0,0
21.03.2019 18:00:00 11,8 9,4 - - 5 3 - - ZW 1032,2 10 0 0,0
21.03.2019 17:00:00 12,4 9,4 - - 8 4 - - ZW 1032,0 10 0 0,0
21.03.2019 16:00:00 13,2 9,1 - - 5 3 - - NNW 1032,0 10 0 0,0
21.03.2019 15:00:00 12,7 9,5 - - 8 4 - - Z 1032,7 10 0 0,0
21.03.2019 14:00:00 13,3 8,9 - - 8 4 - - NNW 1033,3 10 0 0,0
21.03.2019 13:00:00 12,9 9,3 - - 4 2 - - WZW 1034,1 27 0 0,0
21.03.2019 12:00:00 12,4 8,8 - - 4 2 - - - 1034,5 10 0 0,0
21.03.2019 11:00:00 12,0 8,6 - - 5 3 - - W 1034,7 10 0 0,0
21.03.2019 10:00:00 11,4 8,0 - - 9 5 - - W 1034,7 10 0 0,0
21.03.2019 09:00:00 10,9 8,8 9,0 8,5 11 6 - - W 1034,7 25 0 0,0
21.03.2019 08:00:00 9,9 9,3 - - 8 4 - - W 1034,4 7 0 0,0
21.03.2019 07:00:00 9,3 8,9 - - 4 2 - - W 1034,1 4,5 0 0,0
21.03.2019 06:00:00 9,2 8,7 - - 4 2 - - WNW 1033,9 5 0 0,0
21.03.2019 05:00:00 9,2 8,7 - - 5 3 - - W 1033,6 5 0 0,0
21.03.2019 04:00:00 9,2 8,6 - - 5 3 - - WZW 1033,2 5 0 0,0
21.03.2019 03:00:00 9,1 8,4 - - 8 4 - - W 1033,5 10 0 0,0
21.03.2019 02:00:00 9,2 8,4 - - 11 6 - - W 1033,7 12 0 0,0
21.03.2019 01:00:00 9,3 8,5 - - 8 4 - - W 1034,1 13 0 0,0
21.03.2019 00:00:00 9,3 8,4 - - 8 4 - - W 1034,1 17 - 0,0
20.03.2019 23:00:00 9,3 8,2 - - 4 2 - - WZW 1034,1 9 0 0,0
20.03.2019 22:00:00 9,3 8,2 - - 5 3 - - WZW 1034,0 13 0 0,0
20.03.2019 21:00:00 9,3 8,1 - - 8 4 - - W 1034,1 10 0 0,0
20.03.2019 20:00:00 9,6 8,3 - - 9 5 - - WZW 1033,9 10 0 0,0
20.03.2019 19:00:00 9,7 7,5 - - 8 4 - - WZW 1033,8 10 0 0,0
20.03.2019 18:00:00 9,7 7,4 - - 9 5 - - WZW 1033,2 10 0 0,0
20.03.2019 17:00:00 10,0 8,0 - - 15 8 - - ZW 1033,2 29 0 0,0
20.03.2019 16:00:00 10,9 8,3 - - 13 7 - - ZW 1033,0 10 0 0,0
20.03.2019 15:00:00 11,7 8,6 - - 16 9 - - ZW 1032,9 10 0 0,0
20.03.2019 14:00:00 12,3 8,6 - - 21 11 - - WZW 1033,1 45 0 0,0
20.03.2019 13:00:00 12,2 8,7 - - 15 8 - - ZW 1033,4 35 0 0,0
20.03.2019 12:00:00 12,0 8,7 - - 13 7 - - WZW 1033,6 35 0 0,0
20.03.2019 11:00:00 11,7 8,8 - - 11 6 - - W 1033,6 10 0 0,0
20.03.2019 10:00:00 11,1 9,1 - - 9 5 - - W 1033,5 10 0 0,0
20.03.2019 09:00:00 10,6 9,6 8,5 8,4 11 6 - - ZW 1033,3 10 0 0,0
20.03.2019 08:00:00 9,1 8,9 - - 2 1 - - ONO 1032,8 10 0 0,0
20.03.2019 07:00:00 8,4 8,4 - - 4 2 - - ZZO 1032,3 5 0 0,0
20.03.2019 06:00:00 8,1 8,0 - - 5 3 - - WNW 1031,8 0,6 0 0,0
20.03.2019 05:00:00 8,0 7,7 - - 4 2 - - W 1031,5 2,3 0 0,0
20.03.2019 04:00:00 7,6 7,2 - - 4 2 - - WZW 1030,9 2,6 0 0,0
20.03.2019 03:00:00 8,0 7,3 - - 5 3 - - W 1031,2 6 0 0,0
20.03.2019 02:00:00 8,9 8,4 - - 5 3 - - ZW 1031,1 12 0 0,0
20.03.2019 01:00:00 8,8 8,1 - - 5 3 - - WZW 1031,2 14 0 0,0
20.03.2019 00:00:00 8,8 8,1 - - 4 2 - - ZZW 1031,0 10 - 0,0
19.03.2019 23:00:00 8,7 8,1 - - 4 2 - - W 1031,0 13 0 0,0
19.03.2019 22:00:00 9,2 8,2 - - 9 5 - - W 1030,7 15 0 0,0
19.03.2019 21:00:00 9,4 8,1 - - 13 7 - - W 1030,5 10 0 0,0
19.03.2019 20:00:00 9,6 7,7 - - 9 5 - - WZW 1030,2 10 0 0,0
19.03.2019 19:00:00 9,3 7,7 - - 8 4 - - W 1029,6 10 0 0,0
19.03.2019 18:00:00 10,1 7,6 - - 11 6 - - WZW 1029,2 10 6 0,0
19.03.2019 17:00:00 11,1 8,1 - - 5 3 - - ZW 1028,3 10 0 0,2
19.03.2019 16:00:00 10,1 8,8 - - 8 4 - - ZW 1028,3 10 0 0,0
19.03.2019 15:00:00 10,3 8,6 - - 9 5 - - WZW 1028,5 4,0 0 0,0
19.03.2019 14:00:00 10,7 8,2 - - 9 5 - - ZW 1028,4 10 0 0,2
19.03.2019 13:00:00 10,9 8,6 - - 11 6 - - ZW 1028,4 10 0 0,0
19.03.2019 12:00:00 12,1 8,0 - - 9 5 - - ZZW 1028,3 10 6 0,0
19.03.2019 11:00:00 11,5 8,2 - - 11 6 - - WZW 1028,2 23 0 0,0
19.03.2019 10:00:00 10,7 8,7 - - 11 6 - - WZW 1027,9 10 0 0,0
19.03.2019 09:00:00 9,1 9,1 8,2 8,5 5 3 - - - 1027,8 10 42 0,0
19.03.2019 08:00:00 3,0 2,9 - - 4 2 - - ZO 1027,4 11 12 0,0
19.03.2019 07:00:00 1,6 1,4 - - 0 0 - - N 1026,9 3,0 0 0,0
19.03.2019 06:00:00 0,4 0,1 - - 0 0 - - N 1026,4 0,4 0 0,0
19.03.2019 05:00:00 0,6 0,3 - - 2 1 - - ZZO 1026,0 0,2 0 0,0
19.03.2019 04:00:00 2,1 2,0 - - 5 3 - - ZW 1025,8 8 0 0,0
19.03.2019 03:00:00 2,0 1,8 - - 0 0 - - N 1025,9 0,2 0 0,0
19.03.2019 02:00:00 1,6 1,1 - - 2 1 - - O 1025,8 0,2 0 0,0
19.03.2019 01:00:00 3,5 3,0 - - 5 3 - - WNW 1025,6 0,2 0 0,0
19.03.2019 00:00:00 5,3 4,9 - - 4 2 - - W 1025,3 9 - 0,0
18.03.2019 23:00:00 5,9 5,3 - - 2 1 - - W 1025,2 15 0 0,0
18.03.2019 22:00:00 6,2 5,3 - - 4 2 - - W 1025,1 19 0 0,0
18.03.2019 21:00:00 6,5 5,2 - - 8 4 - - W 1024,6 10 0 0,0
18.03.2019 20:00:00 7,6 6,0 - - 13 7 - - W 1024,1 10 0 0,0
18.03.2019 19:00:00 7,9 5,9 - - 9 5 - - W 1023,6 10 0 0,0
18.03.2019 18:00:00 8,2 5,6 - - 9 5 - - W 1023,3 10 0 0,0
18.03.2019 17:00:00 8,7 6,3 - - 11 6 - - WNW 1022,7 29 0 0,0
18.03.2019 16:00:00 8,5 6,4 - - 8 4 - - WNW 1022,6 10 0 0,8
18.03.2019 15:00:00 8,6 5,3 - - 16 9 - - WNW 1022,6 6 0 0,4
18.03.2019 14:00:00 9,8 4,5 - - 18 10 - - WNW 1022,2 30 0 0,0
18.03.2019 13:00:00 9,8 4,9 - - 18 10 - - WNW 1022,4 10 0 0,0
18.03.2019 12:00:00 8,9 5,8 - - 13 7 - - NW 1022,6 10 6 0,2
18.03.2019 11:00:00 9,9 3,6 - - 22 12 - - WNW 1022,5 10 42 0,0
18.03.2019 10:00:00 9,1 4,8 - - 18 10 - - WNW 1022,3 10 48 0,0
18.03.2019 09:00:00 8,1 5,7 8,4 8,5 13 7 - - WNW 1021,9 10 6 0,0
18.03.2019 08:00:00 6,4 4,6 - - 11 6 - - WNW 1021,3 16 0 0,0
18.03.2019 07:00:00 5,4 3,9 - - 15 8 - - WNW 1020,9 10 0 0,0
18.03.2019 06:00:00 4,5 2,9 - - 4 2 - - WNW 1020,4 17 0 0,0
18.03.2019 05:00:00 3,9 2,4 - - 5 3 - - NW 1019,8 18 0 0,0
18.03.2019 04:00:00 3,9 2,5 - - 13 7 - - WNW 1019,3 19 0 0,0
18.03.2019 03:00:00 4,4 2,8 - - 11 6 - - WNW 1019,0 17 0 0,0
18.03.2019 02:00:00 4,9 2,5 - - 15 8 - - NW 1018,7 18 0 0,0
18.03.2019 01:00:00 4,9 3,2 - - 15 8 - - WNW 1017,9 24 0 0,0
18.03.2019 00:00:00 5,1 3,2 - - 15 8 - - WNW 1017,0 18 - 0,0
17.03.2019 23:00:00 5,7 3,7 - - 16 9 - - WNW 1016,5 18 0 0,0
17.03.2019 22:00:00 6,2 3,6 - - 21 11 - - WNW 1015,7 10 0 0,0
17.03.2019 21:00:00 6,6 3,0 - - 22 12 - - WNW 1014,7 30 0 0,0
17.03.2019 20:00:00 3,7 2,0 - - 13 7 - - W 1013,5 10 0 0,0
17.03.2019 19:00:00 5,1 2,6 - - 15 8 - - W 1012,7 10 6 0,0
17.03.2019 18:00:00 7,3 1,9 - - 22 12 52 28 W 1011,8 10 30 0,0
17.03.2019 17:00:00 9,0 0,1 - - 28 15 54 29 WNW 1010,7 35 24 0,0
17.03.2019 16:00:00 9,7 -1,1 - - 28 15 50 27 WNW 1010,1 10 18 0,0
17.03.2019 15:00:00 10,7 -1,7 - - 31 17 54 29 WNW 1009,3 10 30 0,0

tt = temperatuur
td = dauwpunt
tt -20cm = temperatuur -20cm
tt -100cm = temperatuur -100cm
ff = windsnelheid
fx = windstoten
dd = windrichting
ppp = luchtdruk
vv = zicht
sd = Zonneschijnduur
rr = neerslag

Weerstations in de omgeving